CW7595 Weather Reports


Display with metric or nautical units.
time (UTC)temp
F
wind
direction
speed
MPH
gust
MPH
rain 1hr
in
rain 24hr
in
rain mn
in
humidity
%
barometer
mb
20260905130005 58 306 3.0 9.0 0.00 0.24 0.07 80 1010.8
20260905124507 58 309 2.0 6.0 0.00 0.24 0.07 81 1010.7
20260905123009 57 278 0.0 7.0 0.00 0.24 0.07 82 1010.7
20260905121502 57 316 1.0 11.0 0.00 0.24 0.07 82 1010.6
20260905120000 56 285 0.0 8.0 0.00 0.25 0.07 83 1010.5
20260905114600 56 360 0.0 6.0 0.00 0.25 0.07 83 1010.5
20260905113057 56 20 0.0 6.0 0.00 0.25 0.07 83 1010.3
20260905111606 56 16 0.0 5.0 0.00 0.25 0.07 83 1010.3
20260905110059 55 27 0.0 9.0 0.00 0.25 0.07 84 1010.1
20260905104611 55 312 1.0 6.0 0.00 0.25 0.07 84 1009.8
20260905103051 55 299 0.0 6.0 0.00 0.25 0.07 84 1009.7
20260905101551 56 314 0.0 6.0 0.00 0.25 0.07 84 1009.6
20260905100047 56 345 1.0 5.0 0.00 0.25 0.07 84 1009.4
20260905094544 56 311 0.0 3.0 0.00 0.25 0.07 84 1009.1
20260905093042 57 236 0.0 5.0 0.00 0.25 0.07 85 1008.9
20260905091556 57 261 0.0 5.0 0.00 0.25 0.07 85 1008.8
20260905090039 57 314 0.0 6.0 0.00 0.25 0.07 85 1008.7
20260905084549 57 109 0.0 1.0 0.00 0.25 0.07 85 1008.7
20260905083034 58 9 0.0 3.0 0.00 0.25 0.07 85 1008.7
20260905081533 58 285 0.0 0.0 0.00 0.25 0.07 85 1008.6
20260905080039 58 344 0.0 3.0 0.00 0.26 0.07 85 1008.4
20260905074531 58 44 0.0 2.0 0.00 0.26 0.07 85 1008.3
20260905073034 58 69 0.0 0.0 0.00 0.26 0.07 85 1008.2
20260905071527 58 52 0.0 7.0 0.00 0.26 0.07 85 1008.1
20260905070054 59 332 0.0 5.0 0.00 0.26 0.07 85 1007.9
20260905064524 59 9 0.0 1.0 0.01 0.26 0.07 85 1007.7
20260905063022 59 306 0.0 3.0 0.01 0.26 0.07 86 1007.6
20260905061520 59 351 0.0 4.0 0.01 0.26 0.07 86 1007.4
20260905060019 59 321 0.0 1.0 0.02 0.26 0.07 85 1007.2
20260905054538 60 56 0.0 3.0 0.03 0.25 0.06 86 1007.1
20260905053014 60 346 0.0 4.0 0.04 0.25 0.06 86 1007.0
20260905051528 60 351 0.0 0.0 0.05 0.25 0.06 85 1006.8
20260905050011 60 72 0.0 0.0 0.05 0.24 0.05 86 1006.7
20260905044512 60 51 0.0 0.0 0.05 0.22 0.03 85 1006.6
20260905043008 61 71 0.0 1.0 0.12 0.21 0.02 85 1006.6
20260905041507 61 94 0.0 0.0 0.12 0.20 0.01 85 1006.4
20260905040005 61 46 1.0 5.0 0.13 0.21 0.19 85 1006.2
20260905034504 61 70 0.0 4.0 0.10 0.18 0.16 85 1006.1
20260905033003 61 63 0.0 6.0 0.03 0.11 0.09 85 1006.1
20260905031507 61 315 0.0 3.0 0.02 0.10 0.08 85 1006.0
20260905030003 61 306 0.0 2.0 0.00 0.11 0.06 84 1005.8
20260905024503 61 342 0.0 8.0 0.00 0.11 0.06 84 1005.7
20260905023003 62 64 0.0 10.0 0.00 0.11 0.06 83 1005.7
20260905021501 62 339 0.0 4.0 0.00 0.11 0.06 84 1005.7
20260905020003 62 272 1.0 5.0 0.00 0.15 0.06 84 1005.7
20260905014600 62 304 0.0 4.0 0.00 0.15 0.06 84 1005.7
20260905013102 62 275 0.0 6.0 0.00 0.15 0.06 85 1005.7
20260905011607 62 277 1.0 6.0 0.00 0.15 0.06 84 1005.8
20260905010110 62 263 0.0 0.0 0.00 0.15 0.06 84 1005.7
20260905004559 62 279 0.0 0.0 0.00 0.20 0.06 84 1005.7
20260905003058 62 298 0.0 5.0 0.00 0.20 0.06 83 1005.7
20260905001558 63 273 0.0 4.0 0.00 0.20 0.06 84 1005.7
20260905000057 63 267 0.0 5.0 0.00 0.20 0.06 84 1005.7
20260904234557 63 307 0.0 4.0 0.00 0.27 0.06 84 1005.8
20260904233056 63 320 0.0 6.0 0.00 0.27 0.06 83 1005.9
20260904231555 63 289 1.0 8.0 0.00 0.27 0.06 83 1005.7
20260904230104 64 284 2.0 10.0 0.00 0.27 0.06 82 1005.9
20260904224607 64 294 0.0 9.0 0.00 0.30 0.06 83 1006.0
20260904223054 65 311 1.0 7.0 0.00 0.30 0.06 82 1005.8
20260904221553 65 300 0.0 7.0 0.00 0.30 0.06 82 1005.7
20260904220054 66 275 0.0 5.0 0.00 0.30 0.06 81 1005.5
20260904214556 66 290 0.0 6.0 0.00 0.30 0.06 82 1005.4
20260904213052 66 281 0.0 5.0 0.00 0.30 0.06 82 1005.4
20260904211557 66 290 0.0 5.0 0.00 0.30 0.06 82 1005.4
20260904204551 65 300 0.0 0.0 0.03 0.31 0.06 81 1005.4
20260904203050 66 298 0.0 4.0 0.03 0.31 0.06 80 1005.4
20260904201550 68 20 0.0 8.0 0.02 0.30 0.05 76 1005.6
20260904200049 69 294 0.0 4.0 0.01 0.28 0.03 76 1005.3
20260904194548 70 350 0.0 5.0 0.01 0.28 0.03 76 1005.1
20260904193051 69 294 0.0 4.0 0.01 0.28 0.03 79 1005.2
20260904191546 71 14 1.0 6.0 0.01 0.28 0.03 73 1005.3
20260904190045 72 17 0.0 5.0 0.00 0.27 0.02 71 1005.2
20260904184544 73 321 0.0 3.0 0.00 0.28 0.02 66 1005.4
20260904183042 74 317 1.0 5.0 0.00 0.28 0.02 67 1005.4
20260904181540 73 355 0.0 4.0 0.00 0.28 0.02 69 1005.5
20260904180037 71 323 0.0 3.0 0.00 0.28 0.02 71 1005.6
20260904174535 71 313 0.0 3.0 0.00 0.31 0.02 72 1005.7
20260904173034 70 53 0.0 5.0 0.00 0.31 0.02 74 1005.8
20260904171538 70 309 0.0 6.0 0.00 0.31 0.02 76 1005.9
20260904170027 69 298 0.0 7.0 0.00 0.33 0.02 77 1005.9
20260904164529 67 335 0.0 3.0 0.00 0.33 0.02 80 1006.2
20260904163023 66 293 0.0 3.0 0.00 0.33 0.02 81 1006.2
20260904161518 66 348 0.0 6.0 0.00 0.33 0.02 81 1006.4
20260904160022 66 336 0.0 1.0 0.00 0.36 0.02 82 1006.4
20260904154515 66 339 0.0 4.0 0.00 0.36 0.02 83 1006.4
20260904153014 66 347 0.0 6.0 0.00 0.36 0.02 84 1006.5
20260904151510 65 304 0.0 2.0 0.00 0.36 0.02 85 1006.8
20260904150026 64 289 0.0 0.0 0.00 0.39 0.02 86 1006.8
20260904144507 64 294 0.0 3.0 0.00 0.39 0.02 87 1006.9
20260904143005 64 360 0.0 3.0 0.00 0.39 0.02 87 1007.0
20260904141504 64 334 0.0 0.0 0.00 0.39 0.02 87 1007.0
20260904140003 63 334 0.0 0.0 0.00 0.42 0.02 87 1006.9
20260904134500 63 38 0.0 0.0 0.00 0.42 0.02 88 1007.0
20260904133104 63 38 0.0 0.0 0.00 0.42 0.02 88 1007.0
20260904131559 62 116 0.0 0.0 0.00 0.42 0.02 88 1007.0